Погода Остров Врангеля

Погода Остров Врангеля : погода сейчас, прогноз погоды и архив. Всё, что Вы хотите узнать о погоде Остров Врангеля!

Поиск расширенной информации на нашем сайте:

Другие новости

Новости СМИ2

Главная страница сайта

Новости сайта

03.07.2017

Напоминаем, что на нашем специализированном сайте Метеоцентр.Азия вы можете получить высокодетализированные автоматические прогнозы погоды по пунктам России, СНГ и мира в авиационном формате (включающие направление и скорость ветра, видимость, явления погоды, количество и форму облачности, нижнюю и верхнюю границу облачности).


Погода Остров Врангеля - сегодня

Время (UTC), дата Ветер
(°,м/с) 
Видим.   Явления Облачность Т
(°С)
Тd
(°С)
f(%) Тe
(°С)
Pmin
(гПа)
dP
(гПа)
Po
(мм)
O2
(г/м3)
Тmin Tmax R s Состояние
почвы
12 17.01.18 240 (ЮЗ) 6{10}  20000 м  позёмок  10/0 средняя 
[As op]
-17 -19 84 -24  1003.8  1.9  751  324           
15 17.01.18 250 (З) 6{09}  20000 м  позёмок  10/0 средняя 
[As op]
-18 -20.3 82 -25  1004.8  752  326           
18 17.01.18 250 (З) 8-10{11}  20000 м  позёмок  10/0 средняя 
[As op]
-19.1 -21.5 81 -27  1006.5  1.7  753  328  -19.1      87  неравномерный
сухой снег
100% 
21 17.01.18 250 (З) 5{10}  4000 м  слаб. снег  10/0 средняя 
[As op]
-20 -22.5 80 -26  1008.8  2.2  754  330  -20         
00 18.01.18 260 (З) 3{08}  4000 м  слаб. снег  10/0 средняя 
[As op]
-19.7 -22.4 79 -24  1009.3  0.5  755  329           
03 18.01.18 230 (ЮЗ) 3{05}  20000 м  {снег}  9/0 средняя 
[Ac trans]
-19.6 -22.5 78 -24  1009.9  0.6  755  330           
06 18.01.18 320 (СЗ) 7{10}  20000 м  позёмок{снег}  10/0 средняя 
[Ac und]
-20.9 -25.1 69 -29  1010.4  0.5  756  331    -18.8  0.5     
09 18.01.18 300 (СЗ) 5{13}  20000 м  позёмок  10/0 средняя 
[Ac und]
-20.5 -25.2 66 -27  1010.8  0.4  756  331           
12 18.01.18 320 (СЗ) 7-10{10}  20000 м  позёмок  10/0 средняя 
[Ac und]
-22.4 -27.6 63 -31  1011.2  0.4  756  334           
15 18.01.18 310 (СЗ) 10-11{14}  20000 м  позёмок  3/0 средняя 
[Ac trans]
-24.8 -29.5 65 -36  1011.5  0.3  756  337           
18 18.01.18 320 (СЗ) 11-11{18}  20000 м  позёмок  1/0 средняя 
[Ac trans]
-24.7 -29.6 64 -36  1012.4  0.9  757  337  -25.3      90  неравномерный
сухой снег
100% 
21 18.01.18 160 (Ю) 2{16}  20000 м    1/0 средняя 
[Ac trans]
-25.9 -30.9 63 -29  1015  2.6  759  340  -26.6         
00 19.01.18 270 (З) 5{10}  20000 м    1/1 600 м 
[Sc]
-29.4 -34 64 -37  1017.4  2.3  761  346           
03 19.01.18 260 (З) 7{11}  20000 м  позёмок  1/1 600 м 
[Sc]
-30.1 -35.1 62 -40  1018.9  1.5  762  347           
06 19.01.18 290 (З) 5{10}  20000 м    ясно 
-30.9 -35.8 62 -39  1020.3  1.4  763  349    -24       
09 19.01.18 250 (З) 10-13{13}  20000 м  позёмок  ясно 
-30.8 -35.3 65 -43  1021.1  0.8  764  349           
12 19.01.18 250 (З) 11-15{15}  4000 м  метель  ясно 
-29.9 -33.8 69 -42  1022.2  1.1  764  348           
15 19.01.18 260 (З) 8{15}  20000 м  позёмок  ясно 
-30.1 -34.4 66 -41  1023.5  1.3  765  349           
18 19.01.18 240 (ЮЗ) 9-12{14}  20000 м  позёмок  ясно 
-28.3 -34 58 -39  1024.8  1.3  766  346  -31.3      89  неравномерный
сухой снег
100% 
21 19.01.18 280 (З) 6{14}  20000 м    ясно 
-27.5 -33.3 58 -36  1026.3  1.5  767  346           
00 20.01.18 260 (З) 8-11{12}  20000 м  позёмок  ясно 
-27.4 -33.7 55 -38  1027  0.7  768  346           
03 20.01.18 270 (З) 4{11}  20000 м    ясно 
-28.6 -34 60 -35  1027.3  0.3  768  348           
06 20.01.18 270 (З) 4{08}  20000 м    ясно 
-26.9 -32.9 57 -33  1027.7  0.4  769  345    -25.8       
09 20.01.18 290 (З) 5{10}  20000 м    ясно 
-27 -32.5 60 -35  1028.1  0.4  769  346           
12 20.01.18 250 (З) 2{09}  20000 м    ясно 
-25.2 -31.3 57 -28  1028.9  0.8  769  343           
Время (UTC), дата Ветер
(°,м/с) 
Видим.   Явления Облачность Т
(°С)
Тd
(°С)
f(%) Тe
(°С)
Pmin
(гПа)
dP
(гПа)
Po
(мм)
O2
(г/м3)
Тmin Tmax R s Состояние
почвы

Для получения пояснительной информации подведите курсор к названию столбца.

ПОГОДА Остров Врангеля - архив

Всё, что Вы хотите узнать о погоде Остров Врангеля - удобно и подробно!

Выберите нужную дату (начиная с 1 января 2015* года) и нажмите кнопку "Найти".
Будут отображены архивные сводки погоды по пункту Остров Врангеля, начиная с указанной даты.


Отображать данные в формате CSV (для использования в таблицах Excel)


Внимание! Наш архив погоды предназначен исключительно для личного некоммерческого использования в познавательных целях. Если Вам необходимы официальные справки о состоянии погоды (для производственных, юридических, коммерческих и т.п. целей), обращайтесь в органы Росгидромета.

*Примечание: данная дата относится к архиву по метеостанциям СССР (Россия, СНГ, Балтия).
Архив по метеостанциям Зарубежной Европы и Азии (кроме Китая) хранится 10 дней, по другим регионам земного шара (Китай, Африка, Америка, Австралия, Океания) - 1 день.

Остров Врангеля - район местоположения метеостанции


Название, широта, долгота, высота метеостанции:
Остров Врангеля 71°ш. -178.5°д. 5 м над ур. моря [Российская Федерация]

Дополнительная информация

В oтличие oт бoльшинства пoгoдных сайтoв мы публикуем пoдрoбную метеoинфoрмацию в детальнoм прoфессиoнальнoм фoрмате.

Характеристики температуры и влажнoсти вoздуха измеряются на высoте 2 м в тени вдали oт зданий и деревьев.
Скoрoсть ветра измеряется на высoте 10 м (на урoвне рoста челoвека скoрoсть ветра ниже в 1.5-2 раза). Если метеoстанция нахoдится в гoрoде или в лесу, тo скoрoсть ветра занижена на 2-4 м/с пo сравнению с oткрытым местoм. Скoрoсть ветра над акватoриями крупных рек и oзёр, а также на вершинах хoлмoв на 2-5 м/с выше, чем в oбычных услoвиях.
Атмoсфернoе давление в разных тoчках местнoсти мoжет значительнo oтличаться oт давления на метеoстанции, в зависимoсти oт услoвий рельефа (при пoдъёме на 10 м давление пoнижается примернo на 1 мм рт.ст.).